,,PA_Meas_PMT16A,,PR_Meas_QMR101_102,,RH_Meas_QMH101,,SR_Meas_QMS101,,TA_Meas_QMH101,,GenWind,,GenWind,
time,status,PA,status,PR,status,RH,status,SR,status,TA,status,DirAvg,status,SpdAvg,
2015-04-11, 00:00:04,VALID,918.65,VALID,0,VALID,97.1909,VALID,0,VALID,19.8408,VALID,206,VALID,0,
2015-04-11, 00:01:04,VALID,918.61,VALID,0,VALID,97.2977,VALID,0,VALID,19.8798,VALID,206,VALID,0,
2015-04-11, 00:02:04,VALID,918.603,VALID,0,VALID,97.4044,VALID,0,VALID,19.8993,VALID,206,VALID,0,
2015-04-11, 00:03:04,VALID,918.591,VALID,0,VALID,97.4349,VALID,0,VALID,19.8408,VALID,206,VALID,0,
2015-04-11, 00:04:04,VALID,918.588,VALID,0,VALID,97.473,VALID,0,VALID,19.8798,VALID,206,VALID,0,
2015-04-11, 00:05:04,VALID,918.58,VALID,0,VALID,97.4882,VALID,0,VALID,19.8408,VALID,206,VALID,0,
2015-04-11, 00:06:04,VALID,918.566,VALID,0,VALID,97.5035,VALID,0,VALID,19.8003,VALID,206,VALID,0,
2015-04-11, 00:07:04,VALID,918.547,VALID,0,VALID,97.5264,VALID,0,VALID,19.8198,VALID,202,VALID,0,
2015-04-11, 00:08:04,VALID,918.54,VALID,0,VALID,97.5569,VALID,0,VALID,19.8198,VALID,202,VALID,0,
2015-04-11, 00:09:04,VALID,918.532,VALID,0,VALID,97.5797,VALID,0,VALID,19.8393,VALID,202,VALID,0,
2015-04-11, 00:10:04,VALID,918.527,VALID,0,VALID,97.5721,VALID,0,VALID,19.8798,VALID,202,VALID,0,
2015-04-11, 00:11:04,VALID,918.505,VALID,0,VALID,97.6255,VALID,0,VALID,19.8588,VALID,202,VALID,0,
2015-04-11, 00:12:04,VALID,918.472,VALID,0,VALID,97.6255,VALID,0,VALID,19.8408,VALID,202,VALID,0,
2015-04-11, 00:13:04,VALID,918.483,VALID,0,VALID,97.6178,VALID,0,VALID,19.8213,VALID,202,VALID,0,
2015-04-11, 00:14:04,VALID,918.476,VALID,0,VALID,97.6102,VALID,0,VALID,19.8408,VALID,202,VALID,0,
2015-04-11, 00:15:04,VALID,918.459,VALID,0,VALID,97.6407,VALID,0,VALID,19.8408,VALID,202,VALID,0,
2015-04-11, 00:16:04,VALID,918.469,VALID,0,VALID,97.6331,VALID,0,VALID,19.8408,VALID,202,VALID,0,
2015-04-11, 00:17:04,VALID,918.433,VALID,0,VALID,97.6255,VALID,0,VALID,19.8393,VALID,202,VALID,0,
2015-04-11, 00:18:04,VALID,918.406,VALID,0,VALID,97.656,VALID,0,VALID,19.8618,VALID,202,VALID,0,
2015-04-11, 00:19:04,VALID,918.417,VALID,0,VALID,97.6407,VALID,0,VALID,19.8198,VALID,202,VALID,0,
2015-04-11, 00:20:04,VALID,918.388,VALID,0,VALID,97.656,VALID,0,VALID,19.8798,VALID,202,VALID,0,
2015-04-11, 00:21:04,VALID,918.39,VALID,0,VALID,97.6712,VALID,0,VALID,19.8603,VALID,202,VALID,0,
2015-04-11, 00:22:04,VALID,918.39,VALID,0,VALID,97.6636,VALID,0,VALID,19.8603,VALID,202,VALID,0,
2015-04-11, 00:23:04,VALID,918.378,VALID,0,VALID,97.6865,VALID,0,VALID,19.8408,VALID,202,VALID,0,
2015-04-11, 00:24:04,VALID,918.365,VALID,0,VALID,97.6941,VALID,0,VALID,19.8618,VALID,202,VALID,0,
2015-04-11, 00:25:04,VALID,918.344,VALID,0,VALID,97.7322,VALID,0,VALID,19.8408,VALID,202,VALID,0,
2015-04-11, 00:26:04,VALID,918.367,VALID,0,VALID,97.7551,VALID,0,VALID,19.8198,VALID,202,VALID,0,
2015-04-11, 00:27:04,VALID,918.346,VALID,0,VALID,97.7703,VALID,0,VALID,19.8588,VALID,202,VALID,0,
2015-04-11, 00:28:04,VALID,918.348,VALID,0,VALID,97.7932,VALID,0,VALID,19.8603,VALID,202,VALID,0,
2015-04-11, 00:29:04,VALID,918.338,VALID,0,VALID,97.7856,VALID,0,VALID,19.8798,VALID,202,VALID,0,
2015-04-11, 00:30:04,VALID,918.349,VALID,0,VALID,97.8084,VALID,0,VALID,19.9188,VALID,202,VALID,0,
2015-04-11, 00:31:04,VALID,918.317,VALID,0,VALID,97.8008,VALID,0,VALID,19.9578,VALID,202,VALID,0,
2015-04-11, 00:32:04,VALID,918.33,VALID,0,VALID,97.8084,VALID,0,VALID,19.9383,VALID,202,VALID,0,
2015-04-11, 00:33:04,VALID,918.337,VALID,0,VALID,97.7398,VALID,0,VALID,19.8978,VALID,202,VALID,0,
2015-04-11, 00:34:04,VALID,918.329,VALID,0,VALID,97.6788,VALID,0,VALID,19.8798,VALID,202,VALID,0,
2015-04-11, 00:35:04,VALID,918.355,VALID,0,VALID,97.6788,VALID,0,VALID,19.8798,VALID,202,VALID,0,
2015-04-11, 00:36:04,VALID,918.323,VALID,0,VALID,97.6712,VALID,0,VALID,19.8798,VALID,202,VALID,0,
2015-04-11, 00:37:04,VALID,918.344,VALID,0,VALID,97.6865,VALID,0,VALID,19.8783,VALID,202,VALID,0,
2015-04-11, 00:38:04,VALID,918.355,VALID,0,VALID,97.6865,VALID,0,VALID,19.8978,VALID,202,VALID,0,
2015-04-11, 00:39:04,VALID,918.382,VALID,0,VALID,97.6636,VALID,0,VALID,19.9173,VALID,202,VALID,0,
2015-04-11, 00:40:04,VALID,918.388,VALID,0,VALID,97.6636,VALID,0,VALID,19.9173,VALID,202,VALID,0,
2015-04-11, 00:41:04,VALID,918.385,VALID,0,VALID,97.6255,VALID,0,VALID,19.8978,VALID,202,VALID,0,
2015-04-11, 00:42:04,VALID,918.394,VALID,0,VALID,97.595,VALID,0,VALID,19.9383,VALID,193,VALID,0,
2015-04-11, 00:43:04,VALID,918.401,VALID,0,VALID,97.5416,VALID,0,VALID,19.9188,VALID,165,VALID,0,
2015-04-11, 00:44:04,VALID,918.377,VALID,0,VALID,97.5111,VALID,0,VALID,19.9188,VALID,165,VALID,0,
2015-04-11, 00:45:04,VALID,918.365,VALID,0,VALID,97.4577,VALID,0,VALID,19.9173,VALID,165,VALID,0,
2015-04-11, 00:46:04,VALID,918.367,VALID,0,VALID,97.412,VALID,0,VALID,19.9173,VALID,165,VALID,0,
2015-04-11, 00:47:04,VALID,918.359,VALID,0,VALID,97.3739,VALID,0,VALID,19.9578,VALID,165,VALID,0,
2015-04-11, 00:48:04,VALID,918.322,VALID,0,VALID,97.3586,VALID,0,VALID,19.9563,VALID,165,VALID,0,
2015-04-11, 00:49:04,VALID,918.321,VALID,0,VALID,97.3129,VALID,0,VALID,19.9773,VALID,165,VALID,0,
2015-04-11, 00:50:04,VALID,918.284,VALID,0,VALID,97.2824,VALID,0,VALID,19.9773,VALID,165,VALID,0,
2015-04-11, 00:51:04,VALID,918.277,VALID,0,VALID,97.1986,VALID,0,VALID,19.9173,VALID,165,VALID,0,
2015-04-11, 00:52:04,VALID,918.281,VALID,0,VALID,97.0918,VALID,0,VALID,19.8798,VALID,165,VALID,0,
2015-04-11, 00:53:04,VALID,918.274,VALID,0,VALID,97.1071,VALID,0,VALID,19.8603,VALID,165,VALID,0,
2015-04-11, 07:05:04,VALID,918.893,VALID,0,VALID,97.7246,VALID,78.8618,VALID,19.3728,VALID,131,VALID,0,
2015-04-11, 07:06:04,VALID,918.884,VALID,0,VALID,97.6255,VALID,83.5892,VALID,19.3728,VALID,131,VALID,0,
2015-04-11, 07:07:04,VALID,918.904,VALID,0,VALID,97.5721,VALID,94.1184,VALID,19.4118,VALID,131,VALID,0,
2015-04-11, 07:08:04,VALID,918.917,VALID,0,VALID,97.5721,VALID,101.532,VALID,19.4898,VALID,131,VALID,0,
2015-04-11, 07:09:04,VALID,918.951,VALID,0,VALID,97.534,VALID,105.4,VALID,19.5678,VALID,131,VALID,0,
2015-04-11, 07:10:04,VALID,918.979,VALID,0,VALID,97.4806,VALID,115.822,VALID,19.6653,VALID,131,VALID,0,
2015-04-11, 07:11:04,VALID,918.97,VALID,0,VALID,97.2443,VALID,123.45,VALID,19.7043,VALID,131,VALID,0,
2015-04-11, 07:12:04,VALID,918.97,VALID,0,VALID,97.008,VALID,127.748,VALID,19.7613,VALID,131,VALID,0,
2015-04-11, 07:13:04,VALID,919.008,VALID,0,VALID,96.7411,VALID,138.169,VALID,19.8003,VALID,131,VALID,0,
2015-04-11, 07:14:04,VALID,918.989,VALID,0,VALID,96.6039,VALID,143.004,VALID,19.8993,VALID,131,VALID,0,
2015-04-11, 07:15:04,VALID,918.99,VALID,0,VALID,96.4743,VALID,137.095,VALID,19.9968,VALID,131,VALID,0,
2015-04-11, 07:16:04,VALID,918.981,VALID,0,VALID,96.3676,VALID,128.822,VALID,20.1529,VALID,131,VALID,0,
2015-04-11, 07:17:04,VALID,918.999,VALID,0,VALID,96.3066,VALID,126.995,VALID,20.2684,VALID,131,VALID,0,
2015-04-11, 07:18:04,VALID,918.992,VALID,0,VALID,96.0169,VALID,128.822,VALID,20.4244,VALID,131,VALID,0,
2015-04-11, 07:19:04,VALID,918.99,VALID,0,VALID,95.4604,VALID,128.07,VALID,20.621,VALID,131,VALID,0,
2015-04-11, 07:20:04,VALID,918.976,VALID,0,VALID,94.5837,VALID,130.326,VALID,20.7365,VALID,131,VALID,0,
2015-04-11, 07:21:04,VALID,918.995,VALID,0,VALID,94.0348,VALID,129.681,VALID,20.8551,VALID,131,VALID,0,
2015-04-11, 07:22:04,VALID,919.012,VALID,0,VALID,91.8164,VALID,129.574,VALID,20.8535,VALID,131,VALID,0,
2015-04-11, 07:23:04,VALID,919.01,VALID,0,VALID,89.8115,VALID,136.128,VALID,20.8145,VALID,131,VALID,0,
2015-04-11, 07:24:04,VALID,919.034,VALID,0,VALID,89.9411,VALID,141.607,VALID,20.756,VALID,131,VALID,0,
2015-04-11, 07:25:04,VALID,919.066,VALID,0,VALID,90.5586,VALID,143.541,VALID,20.6975,VALID,131,VALID,0,
2015-04-11, 07:26:04,VALID,919.069,VALID,0,VALID,91.5344,VALID,149.666,VALID,20.7365,VALID,131,VALID,0,
2015-04-11, 07:27:04,VALID,919.096,VALID,0,VALID,92.0527,VALID,156.219,VALID,20.795,VALID,131,VALID,0,
2015-04-11, 07:28:04,VALID,919.076,VALID,0,VALID,91.6106,VALID,162.666,VALID,20.8941,VALID,131,VALID,0,
2015-04-11, 07:29:04,VALID,919.097,VALID,0,VALID,91.9155,VALID,168.253,VALID,20.9917,VALID,131,VALID,0,
2015-04-11, 07:30:04,VALID,919.118,VALID,0,VALID,91.6945,VALID,173.625,VALID,21.0681,VALID,132,VALID,0,
2015-04-11, 07:31:04,VALID,919.105,VALID,0,VALID,91.2066,VALID,177.708,VALID,21.1657,VALID,157,VALID,0,
2015-04-11, 07:32:04,VALID,919.131,VALID,0,VALID,89.598,VALID,183.724,VALID,21.2047,VALID,182,VALID,0,
2015-04-11, 07:33:04,VALID,919.163,VALID,0,VALID,88.6146,VALID,185.229,VALID,21.2632,VALID,182,VALID,0,
2015-04-11, 07:34:04,VALID,919.183,VALID,0,VALID,87.5244,VALID,184.369,VALID,21.3022,VALID,182,VALID,0,
2015-04-11, 07:35:04,VALID,919.189,VALID,0,VALID,87.1204,VALID,184.369,VALID,21.3396,VALID,181,VALID,0,
2015-04-11, 07:36:04,VALID,919.232,VALID,0,VALID,86.8612,VALID,189.204,VALID,21.4177,VALID,182,VALID,0,
2015-04-11, 07:37:04,VALID,919.247,VALID,0,VALID,86.8307,VALID,194.576,VALID,21.4957,VALID,182,VALID,0,
2015-04-11, 07:38:04,VALID,919.243,VALID,0,VALID,86.785,VALID,200.915,VALID,21.5737,VALID,182,VALID,0,
2015-04-11, 07:39:04,VALID,919.253,VALID,0,VALID,86.5868,VALID,206.072,VALID,21.5932,VALID,172,VALID,0,
2015-04-11, 07:40:04,VALID,919.277,VALID,0,VALID,86.2894,VALID,211.552,VALID,21.6323,VALID,128,VALID,0,
2015-04-11, 07:41:04,VALID,919.285,VALID,0,VALID,86.2437,VALID,215.742,VALID,21.6518,VALID,153,VALID,0,
2015-04-11, 07:42:04,VALID,919.299,VALID,0,VALID,86.48,VALID,223.263,VALID,21.6713,VALID,153,VALID,0,
2015-04-11, 07:43:04,VALID,919.324,VALID,0,VALID,85.771,VALID,228.742,VALID,21.7688,VALID,153,VALID,0,
2015-04-11, 07:44:04,VALID,919.376,VALID,0,VALID,85.1383,VALID,232.395,VALID,21.8079,VALID,129,VALID,0,
2015-04-11, 07:45:04,VALID,919.37,VALID,0,VALID,84.902,VALID,237.123,VALID,21.8859,VALID,129,VALID,0,
2015-04-11, 07:46:04,VALID,919.4,VALID,0,VALID,82.9733,VALID,242.817,VALID,21.9444,VALID,132,VALID,0,
2015-04-11, 07:47:04,VALID,919.389,VALID,0,VALID,83.4078,VALID,245.073,VALID,21.9233,VALID,146,VALID,0,
2015-04-11, 07:48:04,VALID,919.39,VALID,0,VALID,83.4002,VALID,247.974,VALID,22.0225,VALID,167,VALID,0,
2015-04-11, 07:49:04,VALID,919.38,VALID,0,VALID,83.1105,VALID,251.627,VALID,22.1201,VALID,167,VALID,0,
2015-04-11, 07:50:04,VALID,919.388,VALID,0,VALID,83.3773,VALID,257.644,VALID,22.2567,VALID,167,VALID,0,
2015-04-11, 07:51:04,VALID,919.362,VALID,0,VALID,82.0889,VALID,265.165,VALID,22.3152,VALID,167,VALID,0,
2015-04-11, 07:52:04,VALID,919.354,VALID,0,VALID,82.3024,VALID,270.644,VALID,22.2779,VALID,168,VALID,0,
2015-04-11, 07:53:04,VALID,919.358,VALID,0,VALID,81.845,VALID,276.339,VALID,22.2371,VALID,172,VALID,0,
2015-04-11, 07:54:04,VALID,919.401,VALID,0,VALID,83.1562,VALID,282.14,VALID,22.2388,VALID,171,VALID,0,
2015-04-11, 07:55:04,VALID,919.389,VALID,0,VALID,82.5159,VALID,288.479,VALID,22.2176,VALID,136,VALID,0,
2015-04-11, 07:56:04,VALID,919.391,VALID,0,VALID,82.8589,VALID,294.496,VALID,22.1981,VALID,137,VALID,0,
2015-04-11, 07:57:04,VALID,919.401,VALID,0,VALID,83.1943,VALID,301.587,VALID,22.1981,VALID,135,VALID,0,
2015-04-11, 07:58:04,VALID,919.402,VALID,0,VALID,83.6212,VALID,305.348,VALID,22.2159,VALID,107,VALID,0,
2015-04-11, 07:59:04,VALID,919.381,VALID,0,VALID,83.545,VALID,309.216,VALID,22.1964,VALID,115,VALID,0,
2015-04-11, 08:00:04,VALID,919.407,VALID,0,VALID,84.2083,VALID,312.761,VALID,22.2354,VALID,115,VALID,0,
2015-04-11, 08:01:04,VALID,919.422,VALID,0,VALID,84.9858,VALID,315.877,VALID,22.294,VALID,129,VALID,0,
2015-04-11, 08:02:04,VALID,919.431,VALID,0,VALID,85.306,VALID,320.497,VALID,22.4501,VALID,121,VALID,0,
2015-04-11, 08:03:04,VALID,919.49,VALID,0,VALID,83.4612,VALID,322.646,VALID,22.6062,VALID,153,VALID,0,
2015-04-11, 08:04:04,VALID,919.514,VALID,0,VALID,83.7127,VALID,327.481,VALID,22.7233,VALID,152,VALID,0,
2015-04-11, 08:05:04,VALID,919.519,VALID,0,VALID,83.5831,VALID,334.142,VALID,22.8616,VALID,149,VALID,0,
2015-04-11, 08:06:04,VALID,919.541,VALID,0,VALID,82.4472,VALID,335.324,VALID,22.938,VALID,125,VALID,0,
2015-04-11, 08:07:04,VALID,919.554,VALID,0,VALID,81.7916,VALID,331.563,VALID,22.9965,VALID,116,VALID,0,
2015-04-11, 08:08:04,VALID,919.543,VALID,0,VALID,79.901,VALID,320.927,VALID,23.0746,VALID,148,VALID,0,
2015-04-11, 08:09:04,VALID,919.545,VALID,0,VALID,80.6024,VALID,310.612,VALID,23.0941,VALID,135,VALID,0,
2015-04-11, 08:10:04,VALID,919.537,VALID,0,VALID,80.2974,VALID,305.133,VALID,22.9965,VALID,128,VALID,0,
2015-04-11, 08:11:04,VALID,919.557,VALID,0,VALID,80.7243,VALID,312.439,VALID,22.9185,VALID,137,VALID,0,
2015-04-11, 08:12:04,VALID,919.565,VALID,0,VALID,82.1804,VALID,332.96,VALID,22.8582,VALID,135,VALID,0,
2015-04-11, 08:13:04,VALID,919.556,VALID,0,VALID,82.2262,VALID,332.638,VALID,22.8972,VALID,134,VALID,0,
2015-04-11, 08:14:04,VALID,919.52,VALID,0,VALID,81.0522,VALID,335.324,VALID,22.9167,VALID,132,VALID,0,
2015-04-11, 08:15:04,VALID,919.544,VALID,0,VALID,81.6315,VALID,348.109,VALID,22.9362,VALID,146,VALID,0,
2015-04-11, 08:16:04,VALID,919.507,VALID,0,VALID,80.3737,VALID,344.027,VALID,22.9557,VALID,158,VALID,0,
2015-04-11, 08:17:04,VALID,919.502,VALID,0,VALID,81.723,VALID,342.845,VALID,22.9948,VALID,158,VALID,0,
2015-04-11, 08:18:04,VALID,919.489,VALID,0,VALID,79.4665,VALID,335.431,VALID,23.0338,VALID,158,VALID,0,
2015-04-11, 08:19:04,VALID,919.487,VALID,0,VALID,79.84,VALID,331.026,VALID,23.0533,VALID,158,VALID,0,
2015-04-11, 08:20:04,VALID,919.483,VALID,0,VALID,79.6723,VALID,319.423,VALID,23.1331,VALID,159,VALID,0,
2015-04-11, 08:21:04,VALID,919.478,VALID,0,VALID,78.4068,VALID,330.596,VALID,23.2502,VALID,185,VALID,0,
2015-04-11, 08:22:04,VALID,919.472,VALID,0,VALID,77.4387,VALID,339.944,VALID,23.229,VALID,144,VALID,0,
2015-04-11, 08:23:04,VALID,919.478,VALID,0,VALID,78.5517,VALID,361.325,VALID,23.3674,VALID,146,VALID,0,
2015-04-11, 08:24:04,VALID,919.496,VALID,0,VALID,77.1718,VALID,366.482,VALID,23.3478,VALID,171,VALID,0,
2015-04-11, 08:25:04,VALID,919.496,VALID,0,VALID,77.9342,VALID,380.557,VALID,23.229,VALID,152,VALID,0,
2015-04-11, 08:26:04,VALID,919.488,VALID,0,VALID,79.253,VALID,388.077,VALID,23.1917,VALID,144,VALID,0,
2015-04-11, 08:27:04,VALID,919.511,VALID,0,VALID,79.3674,VALID,393.127,VALID,23.2307,VALID,171,VALID,0,
2015-04-11, 08:28:04,VALID,919.513,VALID,0,VALID,79.1463,VALID,395.169,VALID,23.3461,VALID,149,VALID,0,
2015-04-11, 08:29:04,VALID,919.513,VALID,0,VALID,78.4221,VALID,395.061,VALID,23.4241,VALID,150,VALID,0,
2015-04-11, 08:30:04,VALID,919.509,VALID,0,VALID,78.1705,VALID,399.466,VALID,23.6193,VALID,170,VALID,0,
2015-04-11, 08:31:04,VALID,919.52,VALID,0,VALID,76.7373,VALID,404.409,VALID,23.6584,VALID,142,VALID,0,
2015-04-11, 08:32:04,VALID,919.52,VALID,0,VALID,78.7118,VALID,407.524,VALID,23.6388,VALID,129,VALID,0,
2015-04-11, 08:33:04,VALID,919.533,VALID,0,VALID,79.7638,VALID,410.748,VALID,23.7346,VALID,129,VALID,0,
2015-04-11, 08:34:04,VALID,919.517,VALID,0,VALID,79.0472,VALID,411.715,VALID,23.9512,VALID,114,VALID,0,
2015-04-11, 08:35:04,VALID,919.525,VALID,0,VALID,77.8046,VALID,411.07,VALID,24.0292,VALID,102,VALID,0.16875,
2015-04-11, 08:36:04,VALID,919.531,VALID,0,VALID,75.2812,VALID,417.624,VALID,23.9316,VALID,139,VALID,0,
2015-04-11, 08:37:04,VALID,919.536,VALID,0,VALID,76.6153,VALID,417.946,VALID,23.9298,VALID,131,VALID,0,
2015-04-11, 08:38:04,VALID,919.485,VALID,0,VALID,77.5454,VALID,419.235,VALID,24.0292,VALID,69,VALID,0,
2015-04-11, 08:39:04,VALID,919.485,VALID,0,VALID,78.2315,VALID,421.384,VALID,24.0878,VALID,91,VALID,0,
2015-04-11, 08:40:04,VALID,919.492,VALID,0,VALID,74.9992,VALID,422.459,VALID,24.1269,VALID,92,VALID,0,
2015-04-11, 08:41:04,VALID,919.483,VALID,0,VALID,75.7768,VALID,426.326,VALID,24.1854,VALID,92,VALID,0,
2015-04-11, 08:42:04,VALID,919.494,VALID,0,VALID,76.2189,VALID,430.732,VALID,24.4392,VALID,83,VALID,0,
2015-04-11, 08:43:04,VALID,919.492,VALID,0,VALID,74.1606,VALID,434.385,VALID,24.5545,VALID,101,VALID,0,
2015-04-11, 08:44:04,VALID,919.501,VALID,0,VALID,74.6409,VALID,436.104,VALID,24.4178,VALID,111,VALID,0,
2015-04-11, 08:45:04,VALID,919.541,VALID,0,VALID,73.3449,VALID,440.831,VALID,24.283,VALID,113,VALID,0,
2015-04-11, 08:46:04,VALID,919.543,VALID,0,VALID,73.8328,VALID,445.236,VALID,24.3202,VALID,113,VALID,0,
2015-04-11, 08:47:04,VALID,919.532,VALID,0,VALID,75.2812,VALID,447.17,VALID,24.2617,VALID,113,VALID,0,
2015-04-11, 08:48:04,VALID,919.593,VALID,0,VALID,74.6714,VALID,449.749,VALID,24.1269,VALID,127,VALID,0,
2015-04-11, 08:49:04,VALID,919.61,VALID,0,VALID,77.5378,VALID,448.674,VALID,24.2049,VALID,123,VALID,0,
2015-04-11, 08:50:04,VALID,919.643,VALID,0,VALID,73.627,VALID,455.228,VALID,24.4002,VALID,124,VALID,0,
2015-04-11, 08:51:04,VALID,919.657,VALID,0,VALID,73.2839,VALID,457.055,VALID,24.5564,VALID,124,VALID,0,
2015-04-11, 08:52:04,VALID,919.667,VALID,0,VALID,73.505,VALID,466.724,VALID,24.6345,VALID,124,VALID,0,
2015-04-11, 08:53:04,VALID,919.695,VALID,0,VALID,73.444,VALID,469.196,VALID,24.7907,VALID,161,VALID,0,
2015-04-11, 08:54:04,VALID,919.714,VALID,0,VALID,71.2866,VALID,461.46,VALID,24.9274,VALID,161,VALID,0,
2015-04-11, 08:55:04,VALID,919.719,VALID,0,VALID,71.378,VALID,462.642,VALID,25.1402,VALID,161,VALID,0,
2015-04-11, 08:56:04,VALID,919.731,VALID,0,VALID,68.9767,VALID,465.543,VALID,25.4136,VALID,161,VALID,0,
2015-04-11, 08:57:04,VALID,919.73,VALID,0,VALID,69.8534,VALID,470.055,VALID,25.6499,VALID,161,VALID,0,
2015-04-11, 08:58:04,VALID,919.757,VALID,0,VALID,70.8596,VALID,473.708,VALID,25.8237,VALID,37,VALID,0,
2015-04-11, 08:59:04,VALID,919.776,VALID,0,VALID,70.9664,VALID,494.659,VALID,25.8648,VALID,35,VALID,0,
2015-04-11, 09:00:04,VALID,919.791,VALID,0,VALID,69.6399,VALID,510.453,VALID,25.8823,VALID,33,VALID,0,
2015-04-11, 09:01:04,VALID,919.827,VALID,0,VALID,70.448,VALID,519.263,VALID,25.7456,VALID,33,VALID,0,
2015-04-11, 09:02:04,VALID,919.817,VALID,0,VALID,70.2879,VALID,530.007,VALID,25.6284,VALID,33,VALID,0,
2015-04-11, 09:03:04,VALID,919.857,VALID,0,VALID,71.8812,VALID,539.14,VALID,25.3746,VALID,33,VALID,0,
2015-04-11, 09:04:04,VALID,919.867,VALID,0,VALID,72.9332,VALID,544.297,VALID,25.2183,VALID,33,VALID,0,
2015-04-11, 09:05:04,VALID,919.878,VALID,0,VALID,72.6664,VALID,549.884,VALID,25.2965,VALID,33,VALID,0,
2015-04-11, 09:06:04,VALID,919.872,VALID,0,VALID,71.4162,VALID,552.785,VALID,25.275,VALID,317,VALID,0,
2015-04-11, 09:07:04,VALID,919.86,VALID,0,VALID,72.8494,VALID,474.568,VALID,25.1598,VALID,317,VALID,0,
2015-04-11, 09:08:04,VALID,919.864,VALID,0,VALID,72.5292,VALID,573.199,VALID,25.1598,VALID,322,VALID,0,
2015-04-11, 09:09:04,VALID,919.885,VALID,0,VALID,71.8278,VALID,380.986,VALID,25.1793,VALID,324,VALID,0.235156,
2015-04-11, 09:10:04,VALID,919.89,VALID,0,VALID,71.2408,VALID,318.778,VALID,25.0407,VALID,333,VALID,0,
2015-04-11, 09:11:04,VALID,919.886,VALID,0,VALID,72.2852,VALID,552.355,VALID,24.9626,VALID,333,VALID,0,
2015-04-11, 09:12:04,VALID,919.862,VALID,0,VALID,71.0807,VALID,573.091,VALID,24.904,VALID,321,VALID,0.406641,
2015-04-11, 09:13:04,VALID,919.89,VALID,0,VALID,71.9193,VALID,596.836,VALID,24.8455,VALID,317,VALID,0,
2015-04-11, 09:14:04,VALID,919.881,VALID,0,VALID,72.0489,VALID,598.017,VALID,24.8474,VALID,312,VALID,0,
2015-04-11, 09:15:04,VALID,919.875,VALID,0,VALID,74.0081,VALID,559.661,VALID,24.9255,VALID,307,VALID,0,
2015-04-11, 09:16:04,VALID,919.876,VALID,0,VALID,70.8825,VALID,615.853,VALID,25.1402,VALID,307,VALID,0,
2015-04-11, 09:17:04,VALID,919.886,VALID,0,VALID,73.0476,VALID,574.488,VALID,25.1988,VALID,307,VALID,0,
2015-04-11, 09:18:04,VALID,919.92,VALID,0,VALID,71.1646,VALID,583.513,VALID,25.316,VALID,307,VALID,0,
2015-04-11, 09:19:04,VALID,919.926,VALID,0,VALID,69.7466,VALID,575.562,VALID,25.3941,VALID,307,VALID,0,
2015-04-11, 09:20:04,VALID,919.915,VALID,0,VALID,70.3413,VALID,588.025,VALID,25.355,VALID,312,VALID,0,
2015-04-11, 09:21:04,VALID,919.94,VALID,0,VALID,70.5014,VALID,614.456,VALID,25.355,VALID,311,VALID,0,
2015-04-11, 09:22:04,VALID,919.944,VALID,0,VALID,70.7605,VALID,461.89,VALID,25.1793,VALID,307,VALID,0,
2015-04-11, 09:23:04,VALID,919.944,VALID,0,VALID,72.9332,VALID,681.607,VALID,25.1402,VALID,307,VALID,0,
2015-04-11, 09:24:04,VALID,919.921,VALID,0,VALID,72.5292,VALID,672.582,VALID,25.1969,VALID,307,VALID,0,
2015-04-11, 09:25:04,VALID,919.94,VALID,0,VALID,70.7224,VALID,667.962,VALID,25.1188,VALID,302,VALID,0,
2015-04-11, 09:26:04,VALID,919.936,VALID,0,VALID,71.7135,VALID,622.407,VALID,25.0621,VALID,304,VALID,0,
2015-04-11, 09:27:04,VALID,919.956,VALID,0,VALID,71.2561,VALID,417.946,VALID,25.1402,VALID,303,VALID,0,
2015-04-11, 09:28:04,VALID,919.947,VALID,0,VALID,71.5076,VALID,480.799,VALID,25.2945,VALID,302,VALID,0,
2015-04-11, 09:29:04,VALID,919.947,VALID,0,VALID,70.4099,VALID,386.358,VALID,25.1988,VALID,302,VALID,0,
2015-04-11, 09:30:04,VALID,919.959,VALID,0,VALID,72.1328,VALID,696.971,VALID,25.1988,VALID,302,VALID,0,
2015-04-11, 09:31:04,VALID,919.986,VALID,0,VALID,73.5888,VALID,307.497,VALID,25.3355,VALID,304,VALID,0,
2015-04-11, 09:32:04,VALID,919.984,VALID,0,VALID,69.7771,VALID,405.698,VALID,25.5093,VALID,323,VALID,0,
2015-04-11, 09:33:04,VALID,919.963,VALID,0,VALID,69.0453,VALID,351.87,VALID,25.646,VALID,323,VALID,0,
2015-04-11, 09:34:04,VALID,919.959,VALID,0,VALID,68.7632,VALID,293.207,VALID,25.8433,VALID,323,VALID,0,
2015-04-11, 09:35:04,VALID,919.966,VALID,0,VALID,69.2664,VALID,290.521,VALID,25.9194,VALID,318,VALID,0,
2015-04-11, 09:36:04,VALID,919.991,VALID,0,VALID,69.0986,VALID,325.547,VALID,26.0366,VALID,317,VALID,0,
2015-04-11, 09:37:04,VALID,919.994,VALID,0,VALID,69.2969,VALID,356.275,VALID,26.0757,VALID,317,VALID,0,
2015-04-11, 09:38:04,VALID,919.987,VALID,0,VALID,68.4964,VALID,377.441,VALID,26.1538,VALID,317,VALID,0,
2015-04-11, 09:39:04,VALID,919.963,VALID,0,VALID,68.9995,VALID,402.475,VALID,26.1362,VALID,317,VALID,0,
2015-04-11, 09:40:04,VALID,919.941,VALID,0,VALID,69.3807,VALID,822.355,VALID,26.1167,VALID,317,VALID,0,
2015-04-11, 09:41:04,VALID,919.945,VALID,0,VALID,69.1901,VALID,654.209,VALID,26.2339,VALID,320,VALID,0,
2015-04-11, 09:42:04,VALID,919.945,VALID,0,VALID,67.8255,VALID,538.71,VALID,26.1928,VALID,298,VALID,0,
2015-04-11, 09:43:04,VALID,919.957,VALID,0,VALID,69.7619,VALID,586.951,VALID,26.0561,VALID,298,VALID,0,
2015-04-11, 09:44:04,VALID,919.953,VALID,0,VALID,68.2143,VALID,503.899,VALID,25.978,VALID,289,VALID,0.208594,
2015-04-11, 09:45:04,VALID,919.915,VALID,0,VALID,69.3121,VALID,544.834,VALID,25.5874,VALID,261,VALID,1.48164,
2015-04-11, 09:46:04,VALID,919.89,VALID,0,VALID,69.556,VALID,596.513,VALID,25.4117,VALID,261,VALID,1.09375,
2015-04-11, 09:47:04,VALID,919.898,VALID,0,VALID,70.5547,VALID,533.338,VALID,25.4136,VALID,252,VALID,0.814453,
2015-04-11, 09:48:04,VALID,919.867,VALID,0,VALID,68.7785,VALID,484.56,VALID,25.5289,VALID,230,VALID,0.879297,
2015-04-11, 09:49:04,VALID,919.87,VALID,0,VALID,68.0924,VALID,694.392,VALID,25.5855,VALID,226,VALID,0.867578,
2015-04-11, 09:50:04,VALID,919.861,VALID,0,VALID,68.1838,VALID,554.289,VALID,25.687,VALID,226,VALID,0.272266,
2015-04-11, 09:51:04,VALID,919.862,VALID,0,VALID,67.917,VALID,513.891,VALID,25.7651,VALID,225,VALID,1.37812,
2015-04-11, 09:52:04,VALID,919.853,VALID,0,VALID,67.917,VALID,335.861,VALID,25.6636,VALID,249,VALID,0.0289063,
2015-04-11, 09:53:04,VALID,919.871,VALID,0,VALID,67.4977,VALID,756.601,VALID,25.6265,VALID,261,VALID,0,
2015-04-11, 09:54:04,VALID,919.865,VALID,0,VALID,67.7569,VALID,329.522,VALID,25.6655,VALID,260,VALID,0,
2015-04-11, 09:55:04,VALID,919.889,VALID,0,VALID,66.9107,VALID,549.132,VALID,25.8218,VALID,255,VALID,0,
2015-04-11, 09:56:04,VALID,919.899,VALID,0,VALID,66.0721,VALID,550.099,VALID,25.978,VALID,246,VALID,0,
2015-04-11, 09:57:04,VALID,919.898,VALID,0,VALID,65.4928,VALID,820.958,VALID,26.0952,VALID,246,VALID,0,
2015-04-11, 09:58:04,VALID,919.894,VALID,0,VALID,65.2717,VALID,801.081,VALID,26.2319,VALID,239,VALID,0,
2015-04-11, 09:59:04,VALID,919.884,VALID,0,VALID,64.9058,VALID,612.415,VALID,26.3686,VALID,215,VALID,0,
2015-04-11, 10:00:04,VALID,919.892,VALID,0,VALID,64.9896,VALID,658.292,VALID,26.4488,VALID,215,VALID,0,